Location: Boiro
(42.6475°N, 8.8834°W)
Time: 12:25:31
(UTC+02:00)

deb Agena D - Pass Details

Date: 11 July 2022
Orbit: 997 x 1025 km, 100.1° (Epoch: 16 August)

Event Time Altitude Azimuth Distance (km) Brightness Sun altitude
Exits shadow 01:31:36 46° 149° (SSE) 1,350 ? -23.3°
Maximum altitude 01:33:39 78° 72° (ENE) 1,050 ? -23.4°
Drops below altitude 10° 01:40:01 10° 347° (NNW) 2,825 ? -23.7°
Sets 01:42:31 0° 346° (NNW) 3,779 ? -23.8°
